"Pseudo-MPEC" for P117Z5R

Created 2020 Oct 22 0:07:14 UT using Find_Orb

Click here for an explanation of pseudo-MPECs

 
 Astrometry: 
     P117Z5R  C2020 10 15kj['Astrometry4gLeS9`T*jn?'InBK$FZ:O$4Vw8!Aredacted;F51
     P117Z5R  C2020 10 15s\V;.An'H,Kq-@tOFSclickPm%*[5[tj#mM3b5.V7hereiYx;*$JF51
     P117Z5R  C2020 10 15R+p+[PR:Z4Op.fortsUGexplanation`\HNN7aL,k*.\:fBO=tDQF51

Station data:
(F51) Pan-STARRS 1, Haleakala  (N20.707235 W156.255910)  US/Hawaii.
   Observers N. Primak, A. Schultz, S. Watters, J. Thiel, T. Goggia. Measurer
   PS1 Science Consortium. 1.8-m Ritchey-Chrétien + CCD.

Orbital elements:  P117Z5R
   Perihelion 2020 Oct 19.073738 +/- 44.9 TT =  1:46:11 (JD 2459141.573738)
Epoch 2020 Oct 15.0 TT = JDT 2459137.5   Earth MOID: 0.2621   AutoNEOCP
M 358.34371166 +/- 24               (J2000 ecliptic)
n   0.40657700 +/- 0.31             Peri.    6.35927 +/- 60
a   1.80457183 +/- 0.913            Node    21.97630 +/- 44
e   0.3030583 +/- 0.259             Incl.   18.85366 +/- 11
P   2.42/885.42d           H 24.0   G  0.15   U 12.0  SR
q 1.25768128 +/- 0.328    Q 2.35146238 +/- 34.8
From 3 observations 2020 Oct. 15 (57.2 min); mean residual 0".07
Residuals in arcseconds: 
201015 F51  .08-  .06-    201015 F51  .12+  .08+    201015 F51  .04-  .03-    

Ephemerides (geocentric):
Date (UTC) HH   RA              Dec         delta   r     elong  mag " sig PA
---- -- -- --  -------------   -----------  ------ ------ -----  --- ---- ---
2020 10 22 00  01 54 13.956   +25 46 46.01  .26981 1.2579 165.2 22.4  48d 171
2020 10 22 01  01 54 07.798   +25 49 22.60  .26985 1.2579 165.1 22.4  49d 172
2020 10 22 02  01 54 01.636   +25 51 59.09  .26989 1.2579 165.1 22.4  49d 172
2020 10 22 03  01 53 55.472   +25 54 35.46  .26993 1.2579 165.1 22.4  49d 172
2020 10 22 04  01 53 49.305   +25 57 11.71  .26997 1.2580 165.1 22.4  50d 172
2020 10 22 05  01 53 43.135   +25 59 47.85  .27002 1.2580 165.0 22.4  50d 172
2020 10 22 06  01 53 36.962   +26 02 23.88  .27006 1.2580 165.0 22.4  50d 172
2020 10 22 07  01 53 30.786   +26 04 59.79  .27010 1.2580 165.0 22.4  51d 172
2020 10 22 08  01 53 24.607   +26 07 35.58  .27014 1.2580 165.0 22.4  51d 172
2020 10 22 09  01 53 18.426   +26 10 11.26  .27019 1.2580 165.0 22.4  51d 172
2020 10 22 10  01 53 12.242   +26 12 46.81  .27023 1.2580 164.9 22.4  51d 172
2020 10 22 11  01 53 06.055   +26 15 22.25  .27027 1.2580 164.9 22.4  51d 172
2020 10 22 12  01 52 59.865   +26 17 57.58  .27032 1.2580 164.9 22.4  52d 172
2020 10 22 13  01 52 53.673   +26 20 32.78  .27036 1.2580 164.9 22.4  52d 172
2020 10 22 14  01 52 47.478   +26 23 07.86  .27041 1.2580 164.8 22.4  52d 172
2020 10 22 15  01 52 41.280   +26 25 42.82  .27045 1.2580 164.8 22.4  52d 172
2020 10 22 16  01 52 35.080   +26 28 17.66  .27050 1.2580 164.8 22.4  52d 171
2020 10 22 17  01 52 28.877   +26 30 52.38  .27055 1.2581 164.8 22.4  52d 171
2020 10 22 18  01 52 22.671   +26 33 26.98  .27059 1.2581 164.7 22.4  52d 171
2020 10 22 19  01 52 16.464   +26 36 01.46  .27064 1.2581 164.7 22.4  53d 171
2020 10 22 20  01 52 10.253   +26 38 35.81  .27069 1.2581 164.7 22.4  53d 171
2020 10 22 21  01 52 04.040   +26 41 10.04  .27073 1.2581 164.7 22.4  53d 171
2020 10 22 22  01 51 57.825   +26 43 44.15  .27078 1.2581 164.6 22.4  53d 171
2020 10 22 23  01 51 51.607   +26 46 18.13  .27083 1.2581 164.6 22.4  53d 171
2020 10 23 00  01 51 45.387   +26 48 51.99  .27088 1.2581 164.6 22.4  53d 170
2020 10 23 01  01 51 39.165   +26 51 25.72  .27093 1.2581 164.5 22.4  53d 170
2020 10 23 02  01 51 32.940   +26 53 59.33  .27098 1.2581 164.5 22.4  53d 170
2020 10 23 03  01 51 26.713   +26 56 32.81  .27103 1.2581 164.5 22.4  53d 170
2020 10 23 04  01 51 20.484   +26 59 06.17  .27108 1.2582 164.5 22.4  53d 170
2020 10 23 05  01 51 14.252   +27 01 39.40  .27113 1.2582 164.4 22.4  53d 170
2020 10 23 06  01 51 08.019   +27 04 12.50  .27118 1.2582 164.4 22.4  53d 170
2020 10 23 07  01 51 01.783   +27 06 45.47  .27123 1.2582 164.4 22.4  54d 170
2020 10 23 08  01 50 55.545   +27 09 18.31  .27129 1.2582 164.3 22.4  54d 170
2020 10 23 09  01 50 49.304   +27 11 51.03  .27134 1.2582 164.3 22.4  54d 170
2020 10 23 10  01 50 43.062   +27 14 23.61  .27139 1.2582 164.3 22.4  54d 169
2020 10 23 11  01 50 36.818   +27 16 56.07  .27144 1.2582 164.3 22.4  54d 169
2020 10 23 12  01 50 30.571   +27 19 28.39  .27150 1.2582 164.2 22.4  54d 169
2020 10 23 13  01 50 24.323   +27 22 00.59  .27155 1.2582 164.2 22.4  54d 169
2020 10 23 14  01 50 18.073   +27 24 32.65  .27160 1.2583 164.2 22.4  54d 169
2020 10 23 15  01 50 11.820   +27 27 04.58  .27166 1.2583 164.1 22.4  54d 169
2020 10 23 16  01 50 05.566   +27 29 36.38  .27171 1.2583 164.1 22.4  54d 169
2020 10 23 17  01 49 59.310   +27 32 08.04  .27177 1.2583 164.1 22.4  54d 169
2020 10 23 18  01 49 53.052   +27 34 39.58  .27182 1.2583 164.0 22.4  54d 169
2020 10 23 19  01 49 46.792   +27 37 10.97  .27188 1.2583 164.0 22.4  54d 169
2020 10 23 20  01 49 40.530   +27 39 42.24  .27194 1.2583 164.0 22.4  54d 169
2020 10 23 21  01 49 34.266   +27 42 13.37  .27199 1.2583 164.0 22.4  55d 169
2020 10 23 22  01 49 28.001   +27 44 44.37  .27205 1.2583 163.9 22.4  55d 169
2020 10 23 23  01 49 21.734   +27 47 15.23  .27211 1.2584 163.9 22.4  55d 169